Content
SEND FEEDBACK

Daily
Averages
Monthly
Summary
French Polynesia

PAPEETE, FRENCH POLYNESIA


Home > Oceania > French Polynesia
Elevation: 2 meters     Latitude: 17 33S     Longitude: 149 36W

WEATHER
 
SELECT A DAY
Number of Records: 217,836;   Date Range: 6/30/96 - 12/26/14
 
SHARE

PRINT THIS DATA

[ ← Previous Day ]
WEATHER ALMANAC - 1 JANUARY, 2013
[ Next Day → ]
[ °F ]   °C
Weather ElementAverageHighLow
Temperature27.2 °C32 °C (2:00 pm)24.4 °C (5:00 am)
Dewpoint22.8 °C24 °C (7:30 am)22 °C (8:00 am)
Humidity76.7 %89 % (1:00 am)53 % (2:00 pm)
Barometer1009.8 hPa1012.2 hPa (7:00 am)1008.1 hPa (2:30 pm)
Wind Speed8.4 km/h32.3 km/h (2:00 pm)
Weather ElementAverage
Visibility11.7 km
Wind DirectionSE (137.8 °)

Weather ElementTotal
Precipitation---
Cooling Degree Days9.9 (Base 18.3)
Growing Degree Days18.2 (Base 10)
Averaged from 55 records on 1 January, 2013
WEATHER CONDITIONS BREAKOUT
WIND DIRECTION BREAKOUT
WEATHER BY HOUR - 1 JANUARY, 2013
[ °F ]   °C
Local TimeTemperatureDewpointHumidityBarometerVisibilityWind DirectionWind SpeedGust SpeedPrecipitationEventsConditions
12:30 AM26 °C23 °C83 %1011.2 hPa10 kmCalmPartly Cloudy
1:00 AM25 °C23 °C89 %1011.2 hPa10 kmESE (110°)5.6 km/hPartly Cloudy
1:30 AM25 °C23 °C89 %1011.2 hPa10 kmVariable3.7 km/hPartly Cloudy
2:00 AM25 °C22.8 °C84 %1010.8 hPa19.3 kmESE (120°)3.7 km/hScattered Clouds
2:00 AM25 °C23 °C89 %1010.2 hPa10 kmVariable3.7 km/hPartly Cloudy
2:30 AM25 °C23 °C89 %1010.2 hPa10 kmCalmPartly Cloudy
3:00 AM25 °C23 °C89 %1010.2 hPa10 kmSouth (170°)3.7 km/hPartly Cloudy
3:30 AM25 °C23 °C89 %1010.2 hPa10 kmCalm
4:00 AM25 °C23 °C89 %1010.2 hPa10 kmESE (120°)5.6 km/h
4:30 AM25 °C23 °C89 %1010.2 hPa10 kmESE (110°)5.6 km/h
5:00 AM24.4 °C22.8 °C87 %1011.2 hPa45.1 kmESE (110°)10.8 km/hClear
5:00 AM25 °C23 °C89 %1011.2 hPa10 kmESE (110°)5.6 km/h
5:30 AM25 °C23 °C89 %1011.2 hPa10 kmVariable3.7 km/h
6:00 AM25 °C23 °C89 %1011.2 hPa10 kmCalmMostly Cloudy
6:30 AM25 °C23 °C89 %1011.2 hPa10 kmEast (100°)7.4 km/hMostly Cloudy
7:00 AM26 °C23 °C83 %1012.2 hPa10 kmVariable3.7 km/hMostly Cloudy
7:30 AM26 °C24 °C89 %1012.2 hPa10 kmSouth (190°)11.1 km/hMostly Cloudy
8:00 AM25 °C22.2 °C81 %1012.2 hPa14.5 kmSouth (190°)25.3 km/hRainLight Rain Showers
8:00 AM25 °C22 °C83 %1012.2 hPa10 kmSouth (190°)13 km/hMostly Cloudy
8:30 AM25 °C23 °C89 %1011.2 hPa10 kmVariable1.9 km/hMostly Cloudy
9:00 AM26 °C22 °C78 %1011.2 hPa10 kmVariable5.6 km/hMostly Cloudy
9:30 AM27 °C22 °C74 %1011.2 hPa10 kmSW (230°)11.1 km/hMostly Cloudy
10:00 AM27 °C23 °C79 %1011.2 hPa10 kmSW (220°)18.5 km/hMostly Cloudy
10:30 AM27 °C23 °C79 %1011.2 hPa10 kmSouth (190°)13 km/hScattered Clouds
11:00 AM28.3 °C23.3 °C69 %1010.8 hPa19.3 kmSSW (210°)13 km/hScattered Clouds
11:00 AM28 °C24 °C79 %1010.2 hPa10 kmSSW (210°)13 km/hMostly Cloudy
11:30 AM29 °C23 °C70 %1010.2 hPa10 kmSW (220°)13 km/hMostly Cloudy
12:00 PM30 °C24 °C70 %1009.1 hPa10 kmSW (230°)9.3 km/hMostly Cloudy
12:30 PM30 °C23 °C66 %1009.1 hPa10 kmWest (260°)7.4 km/hMostly Cloudy
1:00 PM31 °C23 °C62 %1009.1 hPa10 kmNW (320°)9.3 km/hMostly Cloudy
1:30 PM31 °C24 °C66 %1009.1 hPa10 kmNNW (330°)16.7 km/hMostly Cloudy
2:00 PM31.7 °C23.3 °C53 %1009.5 hPa19.3 kmNW (320°)32.3 km/hPartly Cloudy
2:00 PM32 °C23 °C59 %1009.1 hPa10 kmNW (320°)16.7 km/hScattered Clouds
2:30 PM31 °C23 °C62 %1008.1 hPa10 kmNW (310°)20.4 km/hScattered Clouds
3:00 PM30 °C23 °C66 %1008.1 hPa10 kmNW (320°)20.4 km/hScattered Clouds
3:30 PM30 °C23 °C66 %1008.1 hPa10 kmNW (320°)18.5 km/hMostly Cloudy
4:00 PM30 °C23 °C66 %1008.1 hPa10 kmNNW (330°)13 km/hMostly Cloudy
4:30 PM29 °C23 °C70 %1008.1 hPa10 kmVariable3.7 km/hMostly Cloudy
5:00 PM30 °C22.2 °C54 %1008.5 hPa19.3 kmSSW (210°)14.3 km/hMostly Cloudy
5:00 PM30 °C22 °C62 %1008.1 hPa10 kmSSW (210°)7.4 km/hMostly Cloudy
5:30 PM29 °C22 °C66 %1008.1 hPa10 kmWSW (240°)11.1 km/hMostly Cloudy
6:00 PM29 °C22 °C66 %1008.1 hPa10 kmCalmMostly Cloudy
6:30 PM29 °C22 °C66 %1009.1 hPa10 kmNNE (20°)7.4 km/hMostly Cloudy
7:00 PM28 °C23 °C74 %1009.1 hPa10 kmVariable3.7 km/hMostly Cloudy
7:30 PM28 °C23 °C74 %1009.1 hPa10 kmWSW (250°)7.4 km/hScattered Clouds
8:00 PM27.2 °C22.8 °C70 %1009.8 hPa19.3 kmSouth (190°)10.8 km/hScattered Clouds
8:00 PM27 °C23 °C79 %1009.1 hPa10 kmSouth (180°)5.6 km/hScattered Clouds
8:30 PM27 °C23 °C79 %1009.1 hPa10 kmENE (70°)7.4 km/hScattered Clouds
9:00 PM27 °C23 °C79 %1009.1 hPa10 kmEast (100°)3.7 km/hScattered Clouds
9:30 PM26 °C22 °C78 %1009.1 hPa10 kmESE (110°)3.7 km/hPartly Cloudy
10:00 PM26 °C22 °C78 %1009.1 hPa10 kmCalmPartly Cloudy
10:30 PM26 °C22 °C78 %1009.1 hPa10 kmCalmPartly Cloudy
11:00 PM25.6 °C22.2 °C77 %1009.8 hPa19.3 kmCalmScattered Clouds
11:00 PM26 °C22 °C78 %1009.1 hPa10 kmCalmPartly Cloudy
11:30 PM26 °C22 °C78 %1009.1 hPa10 kmVariable5.6 km/hPartly Cloudy
Hourly data recorded from NTAA, located 0 kilometers away from Papeete, French Polynesia







STORIES FROM OUR PARTNERS